Time,TemperatureF,DewpointF,PressureIn,WindDirection,WindDirectionDegrees,WindSpeedMPH,WindSpeedGustMPH,Humidity,HourlyPrecipIn,Conditions,Clouds,dailyrainin,SoftwareType,DateUTC
2013-05-13 00:01:00,49.0,42.0,30.20,NE,41,0.0,0.0,78,0.00,,,0.00,weatherlink.com 1.10,2013-05-13 05:01:00,
2013-05-13 00:16:00,48.7,43.0,30.21,NE,41,0.0,0.0,80,0.00,,,0.00,weatherlink.com 1.10,2013-05-13 05:16:00,
2013-05-13 00:31:00,48.3,42.0,30.21,NE,42,0.0,0.0,78,0.00,,,0.00,weatherlink.com 1.10,2013-05-13 05:31:00,
2013-05-13 00:46:00,48.4,41.0,30.21,NE,42,0.0,0.0,75,0.00,,,0.00,weatherlink.com 1.10,2013-05-13 05:46:00,
2013-05-13 01:01:00,48.6,41.0,30.21,NE,41,0.0,0.0,74,0.00,,,0.00,weatherlink.com 1.10,2013-05-13 06:01:00,
2013-05-13 01:16:00,48.7,41.0,30.21,NE,41,0.0,0.0,74,0.00,,,0.00,weatherlink.com 1.10,2013-05-13 06:16:00,
2013-05-13 01:31:00,48.4,41.0,30.20,NE,41,0.0,0.0,75,0.00,,,0.00,weatherlink.com 1.10,2013-05-13 06:31:00,
2013-05-13 01:46:00,48.1,41.0,30.20,NE,42,0.0,0.0,75,0.00,,,0.00,weatherlink.com 1.10,2013-05-13 06:46:00,
2013-05-13 02:01:00,47.8,41.0,30.20,NE,41,0.0,0.0,78,0.00,,,0.00,weatherlink.com 1.10,2013-05-13 07:01:00,
2013-05-13 02:16:00,47.3,41.0,30.20,NE,41,0.0,0.0,79,0.00,,,0.00,weatherlink.com 1.10,2013-05-13 07:16:00,
2013-05-13 02:31:00,46.7,41.0,30.20,NE,41,0.0,0.0,81,0.00,,,0.00,weatherlink.com 1.10,2013-05-13 07:31:00,
2013-05-13 02:46:00,46.5,41.0,30.20,NE,41,0.0,0.0,82,0.00,,,0.00,weatherlink.com 1.10,2013-05-13 07:46:00,
2013-05-13 03:02:00,46.4,41.0,30.20,NE,41,0.0,0.0,82,0.00,,,0.00,weatherlink.com 1.10,2013-05-13 08:02:00,
2013-05-13 03:17:00,46.7,42.0,30.20,NE,41,0.0,0.0,83,0.00,,,0.00,weatherlink.com 1.10,2013-05-13 08:17:00,
2013-05-13 03:32:00,46.6,41.0,30.20,NE,41,0.0,0.0,82,0.00,,,0.00,weatherlink.com 1.10,2013-05-13 08:32:00,
2013-05-13 03:47:00,46.3,41.0,30.20,NE,41,0.0,0.0,82,0.00,,,0.00,weatherlink.com 1.10,2013-05-13 08:47:00,
2013-05-13 04:02:00,46.1,41.0,30.21,NE,41,0.0,0.0,83,0.00,,,0.00,weatherlink.com 1.10,2013-05-13 09:02:00,
2013-05-13 04:17:00,45.8,41.0,30.21,NE,41,0.0,0.0,84,0.00,,,0.00,weatherlink.com 1.10,2013-05-13 09:17:00,
2013-05-13 04:32:00,45.6,41.0,30.21,NE,41,0.0,0.0,85,0.00,,,0.00,weatherlink.com 1.10,2013-05-13 09:32:00,
2013-05-13 04:47:00,45.4,42.0,30.21,NE,42,0.0,0.0,86,0.00,,,0.00,weatherlink.com 1.10,2013-05-13 09:47:00,
2013-05-13 05:02:00,45.3,42.0,30.22,NE,41,0.0,0.0,87,0.00,,,0.00,weatherlink.com 1.10,2013-05-13 10:02:00,
2013-05-13 05:17:00,45.1,42.0,30.22,NE,41,0.0,0.0,87,0.00,,,0.00,weatherlink.com 1.10,2013-05-13 10:17:00,
2013-05-13 05:32:00,44.9,42.0,30.23,NE,41,0.0,0.0,88,0.00,,,0.00,weatherlink.com 1.10,2013-05-13 10:32:00,
2013-05-13 05:47:00,44.8,42.0,30.23,NE,41,0.0,0.0,89,0.00,,,0.00,weatherlink.com 1.10,2013-05-13 10:47:00,
2013-05-13 06:02:00,44.8,42.0,30.23,NE,41,0.0,0.0,89,0.00,,,0.00,weatherlink.com 1.10,2013-05-13 11:02:00,
2013-05-13 06:17:00,44.9,42.0,30.24,NE,41,0.0,0.0,90,0.00,,,0.00,weatherlink.com 1.10,2013-05-13 11:17:00,
2013-05-13 06:32:00,45.3,43.0,30.25,NE,41,0.0,0.0,91,0.00,,,0.00,weatherlink.com 1.10,2013-05-13 11:32:00,
2013-05-13 06:47:00,46.3,44.0,30.25,NE,41,0.0,0.0,90,0.00,,,0.00,weatherlink.com 1.10,2013-05-13 11:47:00,
2013-05-13 07:02:00,47.6,44.0,30.26,NE,41,0.0,0.0,88,0.00,,,0.00,weatherlink.com 1.10,2013-05-13 12:02:00,
2013-05-13 07:17:00,49.0,45.0,30.26,NE,42,0.0,0.0,86,0.00,,,0.00,weatherlink.com 1.10,2013-05-13 12:17:00,
2013-05-13 07:32:00,50.3,46.0,30.26,NE,41,0.0,0.0,85,0.00,,,0.00,weatherlink.com 1.10,2013-05-13 12:32:00,
2013-05-13 07:47:00,51.8,44.0,30.26,NE,41,0.0,0.0,75,0.00,,,0.00,weatherlink.com 1.10,2013-05-13 12:47:00,
2013-05-13 08:02:00,53.6,44.0,30.27,NE,41,0.0,0.0,70,0.00,,,0.00,weatherlink.com 1.10,2013-05-13 13:02:00,
2013-05-13 08:18:00,55.5,45.0,30.27,NE,41,0.0,0.0,68,0.00,,,0.00,weatherlink.com 1.10,2013-05-13 13:18:00,
2013-05-13 08:32:00,57.4,44.0,30.29,NNW,342,0.0,1.0,62,0.00,,,0.00,weatherlink.com 1.10,2013-05-13 13:32:00,
2013-05-13 08:47:00,59.3,44.0,30.29,WNW,291,0.0,3.0,58,0.00,,,0.00,weatherlink.com 1.10,2013-05-13 13:47:00,
2013-05-13 09:02:00,61.0,45.0,30.29,West,276,1.0,1.0,56,0.00,,,0.00,weatherlink.com 1.10,2013-05-13 14:02:00,
2013-05-13 09:18:00,63.2,45.0,30.30,West,278,0.0,1.0,52,0.00,,,0.00,weatherlink.com 1.10,2013-05-13 14:18:00,
2013-05-13 09:33:00,65.1,45.0,30.30,SW,229,2.0,3.0,48,0.00,,,0.00,weatherlink.com 1.10,2013-05-13 14:33:00,
2013-05-13 09:48:00,65.5,45.0,30.30,WSW,242,0.0,2.0,48,0.00,,,0.00,weatherlink.com 1.10,2013-05-13 14:48:00,
2013-05-13 10:03:00,65.9,44.0,30.30,WNW,290,1.0,3.0,46,0.00,,,0.00,weatherlink.com 1.10,2013-05-13 15:03:00,
2013-05-13 10:18:00,67.3,45.0,30.30,WSW,248,2.0,4.0,45,0.00,,,0.00,weatherlink.com 1.10,2013-05-13 15:18:00,
2013-05-13 10:33:00,68.3,45.0,30.30,SW,222,1.0,3.0,44,0.00,,,0.00,weatherlink.com 1.10,2013-05-13 15:33:00,
2013-05-13 10:48:00,70.2,45.0,30.30,ESE,107,1.0,3.0,41,0.00,,,0.00,weatherlink.com 1.10,2013-05-13 15:48:00,
2013-05-13 11:03:00,71.2,46.0,30.30,West,277,0.0,3.0,40,0.00,,,0.00,weatherlink.com 1.10,2013-05-13 16:03:00,
2013-05-13 11:18:00,72.2,47.0,30.30,West,270,1.0,2.0,41,0.00,,,0.00,weatherlink.com 1.10,2013-05-13 16:18:00,
2013-05-13 11:33:00,71.6,47.0,30.30,SW,233,1.0,4.0,41,0.00,,,0.00,weatherlink.com 1.10,2013-05-13 16:33:00,
2013-05-13 11:48:00,71.0,48.0,30.29,SW,214,1.0,4.0,44,0.00,,,0.00,weatherlink.com 1.10,2013-05-13 16:48:00,
2013-05-13 12:03:00,72.9,50.0,30.28,WSW,240,1.0,1.0,44,0.00,,,0.00,weatherlink.com 1.10,2013-05-13 17:03:00,
2013-05-13 12:18:00,74.0,46.0,30.27,SW,229,2.0,2.0,37,0.00,,,0.00,weatherlink.com 1.10,2013-05-13 17:18:00,
2013-05-13 12:33:00,74.1,46.0,30.26,West,273,2.0,4.0,37,0.00,,,0.00,weatherlink.com 1.10,2013-05-13 17:33:00,
2013-05-13 12:48:00,73.8,48.0,30.26,SW,236,1.0,4.0,40,0.00,,,0.00,weatherlink.com 1.10,2013-05-13 17:48:00,
2013-05-13 13:03:00,74.6,47.0,30.25,West,278,2.0,2.0,37,0.00,,,0.00,weatherlink.com 1.10,2013-05-13 18:03:00,
2013-05-13 13:18:00,75.3,47.0,30.25,SW,231,0.0,5.0,37,0.00,,,0.00,weatherlink.com 1.10,2013-05-13 18:18:00,
2013-05-13 13:33:00,76.1,47.0,30.25,WSW,238,0.0,4.0,36,0.00,,,0.00,weatherlink.com 1.10,2013-05-13 18:33:00,
2013-05-13 13:48:00,77.7,48.0,30.24,SW,224,0.0,2.0,35,0.00,,,0.00,weatherlink.com 1.10,2013-05-13 18:48:00,
2013-05-13 14:03:00,77.6,47.0,30.23,ENE,71,0.0,2.0,34,0.00,,,0.00,weatherlink.com 1.10,2013-05-13 19:03:00,
2013-05-13 14:18:00,75.4,47.0,30.23,WSW,257,0.0,4.0,37,0.00,,,0.00,weatherlink.com 1.10,2013-05-13 19:18:00,
2013-05-13 14:33:00,74.6,49.0,30.23,WSW,253,1.0,4.0,40,0.00,,,0.00,weatherlink.com 1.10,2013-05-13 19:33:00,
2013-05-13 14:48:00,74.9,48.0,30.22,SW,214,0.0,2.0,39,0.00,,,0.00,weatherlink.com 1.10,2013-05-13 19:48:00,
2013-05-13 15:03:00,74.5,49.0,30.22,WSW,253,0.0,1.0,40,0.00,,,0.00,weatherlink.com 1.10,2013-05-13 20:03:00,
2013-05-13 15:18:00,74.8,50.0,30.21,SW,232,2.0,2.0,42,0.00,,,0.00,weatherlink.com 1.10,2013-05-13 20:18:00,
2013-05-13 15:33:00,75.0,50.0,30.20,SSE,153,2.0,2.0,41,0.00,,,0.00,weatherlink.com 1.10,2013-05-13 20:33:00,
2013-05-13 15:48:00,77.2,50.0,30.20,South,182,0.0,2.0,38,0.00,,,0.00,weatherlink.com 1.10,2013-05-13 20:48:00,
2013-05-13 16:03:00,77.7,52.0,30.19,South,173,1.0,3.0,41,0.00,,,0.00,weatherlink.com 1.10,2013-05-13 21:03:00,
2013-05-13 16:18:00,78.5,50.0,30.18,SE,143,1.0,3.0,37,0.00,,,0.00,weatherlink.com 1.10,2013-05-13 21:18:00,
2013-05-13 16:33:00,79.3,51.0,30.18,WNW,301,1.0,3.0,38,0.00,,,0.00,weatherlink.com 1.10,2013-05-13 21:33:00,
2013-05-13 16:49:00,79.8,52.0,30.17,SW,219,0.0,4.0,38,0.00,,,0.00,weatherlink.com 1.10,2013-05-13 21:49:00,
2013-05-13 17:04:00,79.8,53.0,30.16,WSW,250,1.0,3.0,39,0.00,,,0.00,weatherlink.com 1.10,2013-05-13 22:04:00,
2013-05-13 17:19:00,80.1,52.0,30.16,SW,221,0.0,3.0,38,0.00,,,0.00,weatherlink.com 1.10,2013-05-13 22:19:00,
2013-05-13 17:34:00,80.0,52.0,30.16,South,191,1.0,3.0,38,0.00,,,0.00,weatherlink.com 1.10,2013-05-13 22:34:00,
2013-05-13 17:49:00,79.3,52.0,30.15,East,101,0.0,3.0,39,0.00,,,0.00,weatherlink.com 1.10,2013-05-13 22:49:00,
2013-05-13 18:04:00,79.5,52.0,30.16,ENE,78,0.0,3.0,38,0.00,,,0.00,weatherlink.com 1.10,2013-05-13 23:04:00,
2013-05-13 18:19:00,79.2,53.0,30.16,West,266,0.0,2.0,41,0.00,,,0.00,weatherlink.com 1.10,2013-05-13 23:19:00,
2013-05-13 18:34:00,79.0,53.0,30.16,SW,227,2.0,4.0,40,0.00,,,0.00,weatherlink.com 1.10,2013-05-13 23:34:00,
2013-05-13 18:49:00,77.7,53.0,30.16,ENE,74,0.0,1.0,42,0.00,,,0.00,weatherlink.com 1.10,2013-05-13 23:49:00,
2013-05-13 19:19:00,78.1,53.0,30.16,SW,224,0.0,0.0,42,0.00,,,0.00,weatherlink.com 1.10,2013-05-14 00:19:00,
2013-05-13 19:34:00,76.4,53.0,30.16,East,97,0.0,1.0,44,0.00,,,0.00,weatherlink.com 1.10,2013-05-14 00:34:00,
2013-05-13 19:49:00,73.6,53.0,30.16,East,98,0.0,0.0,48,0.00,,,0.00,weatherlink.com 1.10,2013-05-14 00:49:00,
2013-05-13 20:03:00,71.0,52.0,30.16,East,97,0.0,0.0,52,0.00,,,0.00,weatherlink.com 1.10,2013-05-14 01:03:00,
2013-05-13 20:18:00,69.0,52.0,30.16,East,97,0.0,0.0,56,0.00,,,0.00,weatherlink.com 1.10,2013-05-14 01:18:00,
2013-05-13 20:33:00,67.5,52.0,30.16,East,97,0.0,0.0,59,0.00,,,0.00,weatherlink.com 1.10,2013-05-14 01:33:00,
2013-05-13 20:48:00,66.5,53.0,30.17,East,98,0.0,0.0,62,0.00,,,0.00,weatherlink.com 1.10,2013-05-14 01:48:00,
2013-05-13 21:03:00,65.5,53.0,30.17,East,97,0.0,1.0,64,0.00,,,0.00,weatherlink.com 1.10,2013-05-14 02:03:00,
2013-05-13 21:18:00,65.6,53.0,30.17,East,98,0.0,0.0,65,0.00,,,0.00,weatherlink.com 1.10,2013-05-14 02:18:00,
2013-05-13 21:33:00,65.4,53.0,30.17,East,98,0.0,0.0,64,0.00,,,0.00,weatherlink.com 1.10,2013-05-14 02:33:00,
2013-05-13 21:48:00,64.7,53.0,30.18,East,98,0.0,0.0,65,0.00,,,0.00,weatherlink.com 1.10,2013-05-14 02:48:00,
2013-05-13 22:03:00,64.3,52.0,30.17,East,98,0.0,0.0,65,0.00,,,0.00,weatherlink.com 1.10,2013-05-14 03:03:00,
2013-05-13 22:18:00,64.6,52.0,30.17,East,97,0.0,0.0,65,0.00,,,0.00,weatherlink.com 1.10,2013-05-14 03:18:00,
2013-05-13 22:33:00,64.6,52.0,30.17,SE,129,0.0,0.0,64,0.00,,,0.00,weatherlink.com 1.10,2013-05-14 03:33:00,
2013-05-13 22:48:00,64.1,52.0,30.17,SE,129,0.0,0.0,66,0.00,,,0.00,weatherlink.com 1.10,2013-05-14 03:48:00,
2013-05-13 23:03:00,63.8,52.0,30.17,SE,129,0.0,0.0,66,0.00,,,0.00,weatherlink.com 1.10,2013-05-14 04:03:00,
2013-05-13 23:18:00,63.7,52.0,30.16,SE,141,0.0,0.0,66,0.00,,,0.00,weatherlink.com 1.10,2013-05-14 04:18:00,
2013-05-13 23:33:00,63.6,52.0,30.16,SE,141,0.0,0.0,65,0.00,,,0.00,weatherlink.com 1.10,2013-05-14 04:33:00,
2013-05-13 23:48:00,63.6,52.0,30.16,SW,229,1.0,1.0,65,0.00,,,0.00,weatherlink.com 1.10,2013-05-14 04:48:00,